Showing default

OPS 9312 (IDSCS 2), 2216

Orbit data source: Space-Track

OPS 9312 (IDSCS 2), 2216 is a payload satellite owned by USAF SSD (US) in GEO that was launched on Thu, 16 Jun 1966 UTC via a TITAN IIIC launch vehicle from the Air Force Eastern Test Range (AFETR). Payload-class satellites include a variety of spacecraft equipped with specific instruments for various scientific and technological missions. These include communications satellites like Starlink; space stations such as the ISS; scientific satellites like the Hubble; Earth observation satellites from companies like Planet Labs, Umbra, and HawkEye 360; GPS; miniature CubeSats for education and research; and military/defense satellites.

Loading next visibility...
Identifier
2216, 1966-053C
Orbit
GEO
Country
Flag of USUS
Related business
Manufacturer
Philco-Ford WDL
Mission
Non-operational Defense Communications
Bus & Motor
IDCSP, Unknown motor
Mass
45 kg wet, 45 kg dry
Launch date (UTC)
1966-06-16 (59 years ago)
Launch vehicle
TITAN IIIC
Launch site
Air Force Eastern Test Range (AFETR)
Object type
Payload
Rocket body
Debris
Shape & HBR
Ico Poly, 0.5 m
Radar Cross Section
0.926 m², Medium (>0.1 m² and < 1m²)

Expand to show TLE details & history
Last TLE update: 19 hours ago

TLE from 19 hours ago
0 OPS 9312 (IDSCS 2)
1 02216U 66053C   25242.93704252 -.00000114  00000-0  00000-0 0  9995
2 02216   8.1168  46.5224 0032416 208.0943 333.3901  1.07851801 46139
Epoch: 2025-08-30T22:29Z
TLE epoch observation values (Epoch: 2025-08-30T22:29:20.473Z)
Latitude
-0.17148°
Longitude
-88.87995°
Altitude
33,670.786 km
Speed
3.159 km/s
True Right ascension
15h 11m 16s
True Declination
0° 10' 17"
Sunlit
Object was in daylight at epoch
Visualization orbit readout
Latitude
Unknown
Longitude
Unknown
Altitude
Unknown
Speed
Unknown
Apparent Right ascension
Unknown
Apparent Declination
Unknown
Sunlit
N/A
Visualization observer readout
Local Sidereal Time
09:22:12
Azimuth
Unknown
Elevation
Unknown
Doppler factor
Unknown
Orbital elements
Apogee altitude
33,918.383 km
Perigee altitude
33,657.977 km
Semi-major axis
40,166.317 km
Eccentricity
0.00324
Inclination
8.1168°
RAAN
46.5224°
Arg. of periapsis
208.0943°
True anomaly
333.22311°
Mean anomaly
333.3901°
Eccentric anomaly
333.30667°
Mean motion
0.26962 °/min
Orbital period
1,335.22 mins
BSTAR
0
Loading maneuver chart data...
Computing Atmospheric mass density...
Loading historical data...
Loading historical data...
Loading historical data...
Loading historical data...
Loading historical data...
Loading historical data...
Loading historical data...

Documentation

Showing up to 5 results
|